EW0182 Weather Reports


time (UTC)temp
C
wind
direction
speed
KPH
gust
KPH
rain 1hr
cm
rain 24hr
cm
rain mn
cm
humidity
%
barometer
mb
20260508084532 -17 0.0 0.0 0.00 0.03 0.03 1011.5
20260508083033 6 246 0.0 4.8 0.03 0.03 0.03 86 1011.6
20260508081525 7 229 0.0 0.0 0.03 0.03 0.03 87 1011.7
20260508080023 7 262 0.0 0.0 0.03 0.03 0.03 86 1011.7
20260508074523 7 226 0.0 3.2 0.03 0.03 0.03 85 1011.7
20260508073023 7 217 0.0 0.0 0.00 0.00 0.00 83 1011.8
20260508071520 8 193 1.6 17.7 0.00 0.00 0.00 77 1012.0
20260508070019 8 246 0.0 11.3 0.00 0.00 0.00 72 1012.0
20260508064522 8 236 3.2 8.0 0.00 0.00 0.00 71 1012.0
20260508063015 7 238 0.0 0.0 0.00 0.00 0.00 72 1011.8
20260508061512 7 215 0.0 1.6 0.00 0.00 0.00 77 1011.9
20260508060012 6 148 0.0 0.0 0.00 0.00 0.00 78 1012.0
20260508054510 7 148 0.0 0.0 0.00 0.00 0.00 76 1012.1
20260508053009 7 148 0.0 0.0 0.00 0.00 0.00 75 1012.2
20260508051507 7 148 0.0 0.0 0.00 0.00 0.00 73 1012.4
20260508050010 8 184 0.0 0.0 0.00 0.00 0.00 70 1012.3
20260508044505 8 232 0.0 0.0 0.00 0.00 0.00 68 1012.5
20260508043003 7 266 0.0 0.0 0.00 0.00 0.00 69 1012.5
20260508041600 7 288 0.0 0.0 0.00 0.00 0.00 71 1012.5
20260508040055 6 286 0.0 0.0 0.00 0.00 0.00 77 1012.5
20260508034555 5 12 0.0 0.0 0.00 0.00 0.00 85 1012.5
20260508033055 4 13 0.0 0.0 0.00 0.00 0.00 85 1012.6
20260508031556 4 279 0.0 0.0 0.00 0.00 0.00 84 1012.3
20260508030054 5 278 0.0 0.0 0.00 0.00 0.00 82 1012.2
20260508024553 5 278 0.0 0.0 0.00 0.00 0.00 81 1012.3
20260508023052 5 278 0.0 0.0 0.00 0.00 0.00 79 1012.2
20260508021554 5 278 0.0 0.0 0.00 0.00 0.00 79 1012.4
20260508020103 5 278 0.0 0.0 0.00 0.00 0.00 77 1012.2
20260508014552 5 278 0.0 0.0 0.00 0.00 0.00 74 1012.1
20260508013050 6 278 0.0 0.0 0.00 0.00 0.00 72 1012.1
20260508011552 7 279 0.0 0.0 0.00 0.00 0.00 69 1011.9
20260508010100 7 278 0.0 0.0 0.00 0.00 0.00 62 1011.9
20260508004548 8 278 0.0 0.0 0.00 0.00 0.00 59 1011.8
20260508003051 10 278 0.0 0.0 0.00 0.00 0.00 56 1011.6
20260508001551 10 115 0.0 0.0 0.00 0.00 0.00 53 1011.4
20260508000048 11 314 0.0 1.6 0.00 0.00 0.00 49 1011.2
20260507234546 11 67 0.0 0.0 0.00 0.00 0.00 50 1011.1
20260507233045 11 289 0.0 0.0 0.00 0.00 0.00 50 1011.1
20260507231544 12 123 0.0 0.0 0.00 0.00 0.00 50 1011.1
20260507230058 12 287 0.0 1.6 0.00 0.00 0.00 45 1011.1
20260507224544 13 256 0.0 0.0 0.00 0.00 0.00 46 1011.0
20260507223130 13 271 0.0 0.0 0.00 0.00 0.00 46 1011.1
20260507221542 13 284 0.0 8.0 0.00 0.00 0.00 45 1011.0
20260507220042 13 298 0.0 3.2 0.00 0.00 0.00 45 1010.9
20260507214548 14 278 0.0 14.5 0.00 0.00 0.00 43 1010.7
20260507213039 13 314 0.0 20.9 0.00 0.00 0.00 45 1010.5
20260507211539 13 318 0.0 1.6 0.00 0.00 0.00 47 1010.5
20260507210042 14 19 0.0 14.5 0.00 0.00 0.00 45 1010.3
20260507204541 15 276 0.0 16.1 0.00 0.00 0.00 43 1010.1
20260507203040 15 13 0.0 0.0 0.00 0.00 0.00 42 1010.0
20260507201540 15 178 0.0 4.8 0.00 0.00 0.00 44 1010.2
20260507200051 15 274 0.0 16.1 0.00 0.00 0.00 43 1010.2
20260507194532 15 322 1.6 12.9 0.00 0.00 0.00 44 1010.4
20260507193042 15 8 0.0 1.6 0.00 0.00 0.00 44 1010.5
20260507191530 15 287 0.0 1.6 0.00 0.00 0.00 43 1010.6
20260507190035 14 263 0.0 9.7 0.00 0.00 0.00 46 1010.6
20260507184528 15 18 0.0 0.0 0.00 0.00 0.00 44 1010.6
20260507183035 14 193 0.0 8.0 0.00 0.00 0.00 44 1010.7
20260507181532 13 232 0.0 3.2 0.00 0.00 0.00 45 1010.7
20260507180024 14 253 0.0 1.6 0.00 0.00 0.00 45 1010.8
20260507174524 15 300 0.0 4.8 0.00 0.00 0.00 43 1010.9
20260507173021 14 294 0.0 0.0 0.00 0.00 0.00 45 1010.8
20260507171520 15 221 0.0 11.3 0.00 0.00 0.00 44 1010.9
20260507170021 15 278 0.0 9.7 0.00 0.00 0.00 43 1011.0
20260507164517 15 307 0.0 20.9 0.00 0.00 0.00 44 1011.1
20260507163015 14 26 0.0 9.7 0.00 0.00 0.00 42 1011.2
20260507161515 15 276 4.8 16.1 0.00 0.00 0.00 42 1011.2
20260507160011 15 162 3.2 12.9 0.00 0.00 0.00 42 1011.2
20260507154511 14 141 8.0 16.1 0.00 0.00 0.00 44 1011.3
20260507153007 14 105 6.4 16.1 0.00 0.00 0.00 46 1011.5
20260507151507 14 305 1.6 12.9 0.00 0.00 0.00 45 1011.4
20260507150005 13 205 0.0 14.5 0.00 0.00 0.00 49 1011.5
20260507144601 13 195 0.0 12.9 0.00 0.00 0.00 50 1011.7
20260507143101 13 165 1.6 14.5 0.00 0.00 0.00 51 1011.7
20260507141556 12 191 3.2 12.9 0.00 0.00 0.00 53 1011.9
20260507140052 12 16 3.2 14.5 0.00 0.00 0.00 61 1012.0
20260507134552 11 159 0.0 6.4 0.00 0.00 0.00 67 1012.3
20260507133051 11 283 0.0 8.0 0.00 0.00 0.00 67 1012.3
20260507131545 10 222 3.2 9.7 0.00 0.00 0.00 69 1012.3
20260507130056 10 225 3.2 11.3 0.00 0.00 0.00 72 1012.3
20260507124540 9 273 1.6 8.0 0.00 0.00 0.00 75 1012.3
20260507123040 8 288 1.6 8.0 0.00 0.00 0.00 80 1012.3
20260507121530 7 169 0.0 6.4 0.00 0.00 0.00 89 1012.2
20260507120034 6 163 0.0 3.2 0.00 0.00 0.00 96 1012.3
20260507114524 5 183 0.0 1.6 0.00 0.00 0.00 96 1012.3
20260507113024 3 134 0.0 0.0 0.00 0.00 0.00 95 1012.3
20260507111523 3 195 0.0 1.6 0.00 0.00 0.00 95 1012.2
20260507110031 -17 0.0 0.0 0.00 0.00 0.00 1012.1
20260507104515 -17 0.0 0.0 0.00 0.00 0.00 1012.0
20260507103009 -17 0.0 0.0 0.00 0.00 0.00 1012.0
20260507101603 -17 0.0 0.0 0.00 0.00 0.00 1011.9
20260507100111 -17 0.0 0.0 0.00 0.00 0.00 1011.9
20260507094551 -17 0.0 0.0 0.00 0.00 0.00 1011.8
20260507093047 -17 0.0 0.0 0.00 0.00 0.00 1011.9
20260507091543 -17 0.0 0.0 0.00 0.00 0.00 1012.0
20260507090041 -17 0.0 0.0 0.00 0.00 0.00 1012.0